Seattle, WA

3:36 PM PST on February 09, 2016 (GMT -0800)
Boeing Field-King County International

Weather History for KBFI - October, 2013

Change the Weather History Date:

Monday, October 28, 2013

  Actual Average Record
Temperature  
Mean Temperature 52 °F -  
Max Temperature 57 °F 54 °F 66 °F (1962)
Min Temperature 45 °F 43 °F 30 °F (1971)
Degree Days  
Heating Degree Days 14    
Growing Degree Days 2 (Base 50)    
Moisture  
Dew Point 35 °F    
Average Humidity 57    
Maximum Humidity 90    
Minimum Humidity 33    
Precipitation  
Precipitation 0.00 in - - ()
Sea Level Pressure  
Sea Level Pressure 29.93 in    
Wind  
Wind Speed 3 mph (NNW)    
Max Wind Speed 16 mph    
Max Gust Speed 26 mph    
Visibility 10 miles    
Events      
Averages and records for this station are not official NWS values.
T = Trace of Precipitation, MM = Missing Value Source: NWS Daily Summary

Daily Weather History Graph

Daily Weather History Graph

Search for Another Location

Airport or City:

Trip Planner

Search our weather history database for the weather conditions in past years. The results will help you decide how hot, cold, wet, or windy it might be!

Date:

Astronomy

Oct. 28, 2013 Rise Set
Actual Time 7:47 AM PDT 5:57 PM PDT
Civil Twilight 7:15 AM PDT 6:29 PM PDT
Nautical Twilight 6:39 AM PDT 7:05 PM PDT
Astronomical Twilight 6:03 AM PDT 7:41 PM PDT
Moon 1:21 AM PDT (10/28) 3:04 PM PDT (10/28)
Length of Visible Light 11h 13m
Length of Day
10h 10m
Waning Crescent, 33% of the Moon is Illuminated
Oct 28
Waning Crescent
Nov 3
New
Nov 9
First Quarter
Nov 17
Full
Nov 25
Last Quarter

Hourly Weather History & Observations

Time (PDT) Temp. Windchill Dew Point Humidity Pressure Visibility Wind Dir Wind Speed Gust Speed Precip Events Conditions
12:53 AM 48.9 °F - 44.1 °F 83% 29.94 in 10.0 mi Calm Calm - N/A   Clear
1:53 AM 48.9 °F - 44.1 °F 83% 29.94 in 10.0 mi Calm Calm - N/A   Overcast
2:53 AM 50.0 °F - 44.1 °F 80% 29.94 in 10.0 mi Calm Calm - N/A   Overcast
3:53 AM 46.0 °F 43.1 °F 43.0 °F 89% 29.93 in 10.0 mi SSE 5.8 mph - N/A   Mostly Cloudy
4:53 AM 46.9 °F - 44.1 °F 90% 29.93 in 10.0 mi South 3.5 mph - N/A   Overcast
5:53 AM 46.0 °F - 39.9 °F 79% 29.93 in 10.0 mi Calm Calm - N/A   Mostly Cloudy
6:53 AM 51.1 °F - 39.0 °F 63% 29.93 in 10.0 mi Calm Calm - N/A   Mostly Cloudy
7:53 AM 50.0 °F - 37.9 °F 63% 29.93 in 10.0 mi Calm Calm - N/A   Clear
8:53 AM 48.9 °F - 39.0 °F 69% 29.94 in 10.0 mi Calm Calm - N/A   Clear
9:53 AM 54.0 °F - 34.0 °F 47% 29.94 in 10.0 mi North 8.1 mph 16.1 mph N/A   Clear
10:53 AM 55.9 °F - 34.0 °F 44% 29.93 in 10.0 mi North 5.8 mph 17.3 mph N/A   Clear
11:53 AM 57.0 °F - 33.1 °F 40% 29.93 in 10.0 mi NW 8.1 mph 20.7 mph N/A   Clear
12:53 PM 57.9 °F - 32.0 °F 37% 29.91 in 10.0 mi NW 11.5 mph 21.9 mph N/A   Clear
1:53 PM 57.9 °F - 30.9 °F 36% 29.90 in 10.0 mi NNW 16.1 mph 26.5 mph N/A   Clear
2:53 PM 57.0 °F - 28.9 °F 34% 29.90 in 10.0 mi NW 12.7 mph 25.3 mph N/A   Clear
3:53 PM 57.0 °F - 28.0 °F 33% 29.91 in 10.0 mi NNW 12.7 mph 25.3 mph N/A   Clear
4:53 PM 57.0 °F - 30.0 °F 36% 29.91 in 10.0 mi NNW 5.8 mph 21.9 mph N/A   Clear
5:53 PM 55.0 °F - 28.9 °F 37% 29.92 in 10.0 mi North 5.8 mph - N/A   Clear
6:53 PM 54.0 °F - 28.9 °F 38% 29.93 in 10.0 mi Calm Calm - N/A   Clear
7:53 PM 51.1 °F - 32.0 °F 48% 29.94 in 10.0 mi Calm Calm - N/A   Clear
8:53 PM 46.9 °F - 33.1 °F 59% 29.95 in 10.0 mi Calm Calm - N/A   Clear
9:53 PM 50.0 °F - 32.0 °F 50% 29.95 in 10.0 mi Calm Calm - N/A   Clear
10:53 PM 46.9 °F - 33.1 °F 59% 29.95 in 10.0 mi Calm Calm - N/A   Clear
11:53 PM 45.0 °F - 34.0 °F 65% 29.96 in 10.0 mi Calm Calm - N/A   Clear